Погода Лодейное Поле

Погода Лодейное Поле : погода сейчас, прогноз погоды и архив. Всё, что Вы хотите узнать о погоде Лодейное Поле!

Хотите узнать прогноз погоды Лодейное Поле? Тогда Вам сюда: Погода Лодейное Поле

Поиск расширенной информации на нашем сайте:

Другие новости

Новости СМИ2

Главная страница сайта

Новости сайта

02.10.2013

Напоминаем, что на нашем новом сайте вы можете получить высокодетализированные прогнозы погоды по пунктам России, СНГ и мира (включающие важные для авиации метеовеличины, такие как направление и скорость ветра, видимость, явления погоды, количество и форма облачности, нижняя и верхняя граница облачности), а также ознакомиться с разнообразными материалами по авиационной метеорологии и подборкой полезных ссылок на эту тему.

Сайт Метеоцентр.Азия посвящён разработке технологий оптимизации авиаметеорологического обслуживания, включая проектирование и перспективное создание нескольких автоматизированных авиаметеорологических систем:
- система выпуска высокодетальных прогностических карт явлений погоды для нижнего воздушного пространства по России и ближнему зарубежью;
- система верификации прогнозов TAF (выпускаемых синоптиками официальных АМСГ РФ и ближнего зарубежья) и AUTOTAF (выпускаемых сайтом Метеоцентр.Азия) - выявление ошибок, онлайн-сопоставление с фактической погодой METAR, автоматическое внесение коррективов в прогнозы при резком отклонении фактической погоды от прогноза, подсчёт оправдываемости прогнозов по элементам и в целом;
- система обработки, анализа и отображения авиаметеорологической информации для применения провайдерами метеорологической информации.

Рекомендуем: Свежая информация спальни черкассы тут.

Погода Лодейное Поле - сегодня

Время (UTC), дата Ветер
(°,м/с) 
Видим.   Явления Облачность Т
(°С)
Тd
(°С)
f(%) Тe
(°С)
Pmin
(гПа)
dP
(гПа)
Po
(мм)
O2
(г/м3)
Тmin Tmax R s Состояние
почвы
03 18.01.17 210 (ЮЗ) 10 км    10/10 360 м 
[Sc]
-5.1 -6.1 93 -8  1027.3  -1.6  768  316  -5.6    0.0     
06 18.01.17 220 (ЮЗ) 4000 м  слаб. снег  10/10 420 м 
[Ns]
-4.3 -5 95 -7  1025.3  -2  767  314  -5.6    0.2  26  равномерный
сухой снег
100% 
09 18.01.17 230 (ЮЗ) 4000 м  слаб. снег{дождь} [диам. гололёда 2 мм]  10/10 330 м 
[Ns]
-2.9 -3.5 96 -5  1024.9  -0.3  766  313           
12 18.01.17 220 (ЮЗ) 4000 м  слаб. снег{дождь} [диам. гололёда 2 мм]  10/10 270 м 
[Frnb|Ns]
-2.1 -2.5 97 -4  1024.6  -0.3  766  311           
15 18.01.17 220 (ЮЗ) 4000 м  слаб. снег [диам. гололёда 2 мм]  10/10 210 м 
[Frnb|Ns]
-1.9 -2.2 98 -4  1024.3  -0.3  766  311         
18 18.01.17 210 (ЮЗ) 4000 м  слаб. снег [диам. гололёда 2 мм]  10/10 150 м 
[Frnb|Ns]
-1.6 -1.8 99 -4  1022.2  -2.1  764  310    -1.6     
21 18.01.17 220 (ЮЗ) 4000 м  слаб. снег [диам. гололёда 1 мм]  10/10 120 м 
[Frnb|Ns]
-0.4 -0.5 99 -2  1019.9  -2.3  763  308           
00 19.01.17 220 (ЮЗ) 4000 м  дымка{снег}  10/10 180 м 
[St]
-0.4 -0.7 98 -2  1017  -2.8  761  307           
03 19.01.17 220 (ЮЗ) 4000 м  слаб. переохл. морось (гололёд) [диам. гололёда 1 мм]  10/10 240 м 
[St]
-0.4 -0.5 99 -3  1013.6  -2.5  758  306  -1.9    0.9     
06 19.01.17 230 (ЮЗ) 4-10{12}  4000 м  дымка{снег, морось} [диам. отлож. мокр. снега 5 мм]  10/10 210 м 
[Frnb|Ns]
+0.3 +0.2 99 -2  1011.8  -1.8  757  305  -1.6    28  равномерный
мокрый или
старый снег
100% 
09 19.01.17 240 (ЮЗ) 3{10}  4000 м  слаб. дождь  10/10 270 м 
[Frnb|Ns]
+0.8 +0.7 99 -1  1011.4  -0.5  756  304           
12 19.01.17 230 (ЮЗ) 4000 м  слаб. дождь  10/10 240 м 
[Frnb|Ns]
+0.6 +0.5 99 -2  1009.5  -1.8  755  303           
15 19.01.17 230 (ЮЗ) 6-12{13}  10 км  {дождь}  10/10 420 м 
[Sc]
+0 -0.2 99 -3  1006.4  -3.2  753  303         
18 19.01.17 240 (ЮЗ) 5-12{13}  10 км  {дождь}  9/9 300 м 
[Sc]
+1.4 +0.3 92 -1  1002.5  -3.9  750  300    +1.4  0.5     
21 19.01.17 270 (З) 4{15}  10 км  {ливн. осадки}  8/8 300 м кучево-дожд. 
[Cb cap]
+1.5 -0.1 89 -1  1002.9  0.4  750  301           
00 20.01.17 290 (З) 6-14{14}  10 км  {ливн. осадки}  ясно 
+0.4 -5.5 65 -3  1005.2  2.3  752  303           
03 20.01.17 290 (З) 4-10{14}  10 км    ясно 
-1.9 -9.4 56 -5  1008.5  3.3  754  307  -1.9    0.3     
06 20.01.17 270 (З) 2{12}  10 км    ясно 
-4.6 -11.9 57 -6  1010.8  2.3  756  311  -4.6    0.3  24  равномерный
мокрый или
старый снег
100% 
09 20.01.17 280 (З) 10 км    ясно 
-3.5 -11 56 -6  1012.6  1.9  757  310           
12 20.01.17 260 (З) 10 км    5/0 верхняя 
[Ci sp]
-2.3 -7.4 68 -3  1011.6  -1  756  308           
15 20.01.17 220 (ЮЗ) 10 км    6/0 средняя, верхняя 
[Ac trans|Ci sp]
-4 -6.3 84 -6  1009.8  -1.8  755  309           
18 20.01.17 230 (ЮЗ) 10 км    6/0 верхняя 
[Ci sp]
-6 -6.4 97 -7  1007.8  -2  754  311    -2.1       
21 20.01.17 270 (З) 10 км    10/0 средняя 
[As trans]
-3.8 -5.2 90 -5  1007.3  -0.5  753  308           
00 21.01.17 270 (З) 10 км    10/0 средняя 
[As trans]
-4.7 -6.3 89 -6  1008.3  754  310           
03 21.01.17 270 (З) 10 км    6/0 верхняя 
[Ci sp]
-5.9 -7 92 -8  1008.2  0.1  754  311  -8.7         
Время (UTC), дата Ветер
(°,м/с) 
Видим.   Явления Облачность Т
(°С)
Тd
(°С)
f(%) Тe
(°С)
Pmin
(гПа)
dP
(гПа)
Po
(мм)
O2
(г/м3)
Тmin Tmax R s Состояние
почвы

Для получения пояснительной информации подведите курсор к названию столбца.

ПОГОДА Лодейное Поле - архив

Всё, что Вы хотите узнать о погоде Лодейное Поле - удобно и подробно!

Выберите нужную дату (начиная с 1 января 2015* года) и нажмите кнопку "Найти".
Будут отображены архивные сводки погоды по пункту Лодейное Поле, начиная с указанной даты.


Отображать данные в формате CSV (для использования в таблицах Excel)


Внимание! Наш архив погоды предназначен исключительно для личного некоммерческого использования в познавательных целях. Если Вам необходимы официальные справки о состоянии погоды (для производственных, юридических, коммерческих и т.п. целей), обращайтесь в органы Росгидромета.

*Примечание: данная дата относится к архиву по метеостанциям СССР (Россия, СНГ, Балтия).
Архив по метеостанциям Зарубежной Европы и Азии (кроме Китая) хранится 10 дней, по другим регионам земного шара (Китай, Африка, Америка, Австралия, Океания) - 1 день.

Лодейное Поле - район местоположения метеостанции


Название, широта, долгота, высота метеостанции:
Лодейное Поле 60.7°ш. 33.6°д. 23 м над ур. моря [Российская Федерация]

Дополнительная информация

В oтличие oт бoльшинства пoгoдных сайтoв мы публикуем пoдрoбную метеoинфoрмацию в детальнoм прoфессиoнальнoм фoрмате.

Характеристики температуры и влажнoсти вoздуха измеряются на высoте 2 м в тени вдали oт зданий и деревьев.
Скoрoсть ветра измеряется на высoте 10 м (на урoвне рoста челoвека скoрoсть ветра ниже в 1.5-2 раза). Если метеoстанция нахoдится в гoрoде или в лесу, тo скoрoсть ветра занижена на 2-4 м/с пo сравнению с oткрытым местoм. Скoрoсть ветра над акватoриями крупных рек и oзёр, а также на вершинах хoлмoв на 2-5 м/с выше, чем в oбычных услoвиях.
Атмoсфернoе давление в разных тoчках местнoсти мoжет значительнo oтличаться oт давления на метеoстанции, в зависимoсти oт услoвий рельефа (при пoдъёме на 10 м давление пoнижается примернo на 1 мм рт.ст.).